Hartford, CT

6:19 AM EDT on June 27, 2017 (GMT -0400)
Hartford-brainard

Weather History for KHFD - February, 2014

Change the Weather History Date:

Thursday, February 27, 2014

  Actual Average Record
Temperature  
Mean Temperature 20 °F -  
Max Temperature 30 °F 39 °F 69 °F (1997)
Min Temperature 9 °F 21 °F 2 °F (1950)
Degree Days  
Heating Degree Days 46    
Moisture  
Dew Point 5 °F    
Average Humidity 54    
Maximum Humidity 85    
Minimum Humidity 32    
Precipitation  
Precipitation 0.00 in - - ()
Sea Level Pressure  
Sea Level Pressure 29.77 in    
Wind  
Wind Speed 6 mph (West)    
Max Wind Speed 21 mph    
Max Gust Speed 36 mph    
Visibility 8 miles    
Events Fog , Snow    
Averages and records for this station are not official NWS values.
T = Trace of Precipitation, MM = Missing Value Source: NWS Daily Summary

Daily Weather History Graph

Daily Weather History Graph

Search for Another Location

Airport or City:

Trip Planner

Search our weather history database for the weather conditions in past years. The results will help you decide how hot, cold, wet, or windy it might be!

Date:

Astronomy

Feb. 27, 2014 Rise Set
Actual Time 6:28 AM EST 5:38 PM EST
Civil Twilight 6:00 AM EST 6:06 PM EST
Nautical Twilight 5:28 AM EST 6:38 PM EST
Astronomical Twilight 4:56 AM EST 7:11 PM EST
Moon 5:00 AM EST 4:00 PM EST
Length of Visible Light 12h 05m
Length of Day
11h 10m
Waning Crescent, 4% of the Moon is Illuminated
Feb 27
Waning Crescent
Mar 1
New
Mar 8
First Quarter
Mar 16
Full
Mar 23
Last Quarter

Hourly Weather History & Observations

Time (EST) Temp. Windchill Dew Point Humidity Pressure Visibility Wind Dir Wind Speed Gust Speed Precip Events Conditions
12:53 AM 12.9 °F - -0.0 °F 56% 29.91 in 10.0 mi Calm Calm - N/A   Clear
1:53 AM 10.0 °F - 1.0 °F 67% 29.89 in 10.0 mi Calm Calm - N/A   Clear
2:53 AM 10.0 °F - 1.0 °F 67% 29.86 in 9.0 mi Calm Calm - N/A   Clear
3:53 AM 10.0 °F - -0.0 °F 64% 29.83 in 10.0 mi Calm Calm - N/A   Clear
4:53 AM 9.0 °F - -0.0 °F 67% 29.81 in 10.0 mi Calm Calm - N/A   Clear
5:53 AM 10.0 °F 3.6 °F 1.0 °F 67% 29.80 in 10.0 mi South 3.5 mph - N/A   Clear
6:53 AM 10.0 °F - 1.9 °F 70% 29.78 in 10.0 mi Calm Calm - N/A   Clear
7:53 AM 12.0 °F - 1.0 °F 61% 29.77 in 10.0 mi Calm Calm - N/A   Clear
8:53 AM 17.1 °F - -5.1 °F 37% 29.75 in 10.0 mi Calm Calm - N/A   Partly Cloudy
9:53 AM 21.0 °F 12.4 °F 1.9 °F 44% 29.73 in 10.0 mi SSE 6.9 mph - N/A   Mostly Cloudy
10:53 AM 27.0 °F 18.0 °F 8.1 °F 45% 29.68 in 10.0 mi South 9.2 mph - N/A   Overcast
11:53 AM 28.0 °F 19.3 °F 10.9 °F 49% 29.64 in 10.0 mi SSW 9.2 mph - N/A   Overcast
12:01 PM 28.0 °F 17.0 °F 14.0 °F 56% 29.63 in 1.5 mi SSW 13.8 mph 24.2 mph 0.00 in Snow Light Snow
12:22 PM 30.0 °F 22.4 °F 12.0 °F 47% 29.62 in 3.0 mi SW 8.1 mph 17.3 mph 0.00 in Snow Light Snow
12:30 PM 30.0 °F 19.5 °F 10.0 °F 43% 29.61 in 9.0 mi SW 13.8 mph 23.0 mph 0.00 in   Overcast
12:53 PM 30.9 °F 21.2 °F 7.0 °F 37% 29.60 in 10.0 mi WSW 12.7 mph 24.2 mph 0.00 in   Mostly Cloudy
1:53 PM 30.9 °F 21.2 °F 3.9 °F 32% 29.60 in 10.0 mi WSW 12.7 mph 25.3 mph N/A   Mostly Cloudy
2:53 PM 30.9 °F 18.7 °F 6.1 °F 35% 29.62 in 10.0 mi WSW 19.6 mph 27.6 mph N/A   Overcast
3:53 PM 28.9 °F 17.3 °F 9.0 °F 43% 29.65 in 10.0 mi West 16.1 mph 31.1 mph N/A   Mostly Cloudy
4:53 PM 28.0 °F 17.0 °F 5.0 °F 38% 29.67 in 10.0 mi WSW 13.8 mph 24.2 mph N/A   Partly Cloudy
5:53 PM 27.0 °F 20.5 °F 3.9 °F 37% 29.70 in 10.0 mi WSW 5.8 mph - N/A   Clear
6:53 PM 27.0 °F 20.5 °F 3.0 °F 36% 29.74 in 10.0 mi West 5.8 mph - N/A   Overcast
7:53 PM 21.9 °F 6.5 °F 12.9 °F 68% 29.80 in 3.0 mi NNW 20.7 mph 35.7 mph 0.00 in Snow Light Snow
7:56 PM 21.0 °F 6.2 °F 14.0 °F 74% 29.80 in 1.8 mi NNW 18.4 mph 35.7 mph 0.00 in Snow Light Snow
8:05 PM 21.0 °F 10.6 °F 17.1 °F 85% 29.82 in 0.2 mi WNW 9.2 mph 27.6 mph 0.00 in Fog , Snow Heavy Snow
8:12 PM 21.0 °F 8.1 °F 15.1 °F 78% 29.82 in 1.0 mi WNW 13.8 mph 19.6 mph 0.00 in Snow Light Snow
8:39 PM 19.9 °F 9.3 °F 12.0 °F 71% 29.85 in 3.0 mi WNW 9.2 mph - 0.00 in Snow Light Snow
8:53 PM 19.9 °F 6.2 °F 10.0 °F 65% 29.88 in 9.0 mi NW 15.0 mph 23.0 mph 0.00 in   Mostly Cloudy
9:53 PM 18.0 °F 4.8 °F 1.9 °F 50% 29.94 in 10.0 mi NW 12.7 mph 23.0 mph 0.00 in   Mostly Cloudy
10:53 PM 15.1 °F -0.1 °F -4.0 °F 43% 29.99 in 10.0 mi NW 15.0 mph 26.5 mph N/A   Partly Cloudy
11:53 PM 14.0 °F 0.5 °F -9.0 °F 35% 30.03 in 10.0 mi NW 11.5 mph 18.4 mph N/A   Clear